Year,Month,Day,Hour,Minute,Value (Times are PST for temperature in C)
2009,04,15,08,03,2.60
2009,04,15,08,04,2.70
2009,04,15,08,05,2.70
2009,04,15,08,06,2.80
2009,04,15,08,07,2.80
2009,04,15,08,08,2.80
2009,04,15,08,09,2.90
2009,04,15,08,10,2.90
2009,04,15,08,11,3.00
2009,04,15,08,12,3.00
2009,04,15,08,13,3.00
2009,04,15,08,14,3.10
2009,04,15,08,15,3.10
2009,04,15,08,16,3.20
2009,04,15,08,17,3.20
2009,04,15,08,18,3.20
2009,04,15,08,19,3.30
2009,04,15,08,20,3.30
2009,04,15,08,21,3.30
2009,04,15,08,22,3.40
2009,04,15,08,23,3.50
2009,04,15,08,24,3.50
2009,04,15,08,25,3.50
2009,04,15,08,26,3.60
2009,04,15,08,27,3.60
2009,04,15,08,28,3.70
2009,04,15,08,29,3.70
2009,04,15,08,30,3.70
2009,04,15,08,31,3.70
2009,04,15,08,32,3.70
2009,04,15,08,33,3.70
2009,04,15,08,34,3.80
2009,04,15,08,35,3.80
2009,04,15,08,36,3.80
2009,04,15,08,37,3.90
2009,04,15,08,38,3.90
2009,04,15,08,39,3.90
2009,04,15,08,40,4.00
2009,04,15,08,41,4.00
2009,04,15,08,42,4.10
2009,04,15,08,43,4.10
2009,04,15,08,44,4.10
2009,04,15,08,45,4.20
2009,04,15,08,46,4.20
2009,04,15,08,47,4.20
2009,04,15,08,48,4.30
2009,04,15,08,49,4.30
2009,04,15,08,50,4.30
2009,04,15,08,51,4.40
2009,04,15,08,52,4.40
2009,04,15,08,53,4.50
2009,04,15,08,54,4.50
2009,04,15,08,55,4.60
2009,04,15,08,56,4.60
2009,04,15,08,57,4.60
2009,04,15,08,58,4.70
2009,04,15,08,59,4.70
2009,04,15,09,00,4.80
2009,04,15,09,01,4.80
2009,04,15,09,02,4.80
2009,04,15,09,03,4.80
2009,04,15,09,04,4.90
2009,04,15,09,05,5.00
2009,04,15,09,06,5.00
2009,04,15,09,07,5.10
2009,04,15,09,08,5.10
2009,04,15,09,09,5.10
2009,04,15,09,10,5.10
2009,04,15,09,11,5.20
2009,04,15,09,12,5.30
2009,04,15,09,13,5.30
2009,04,15,09,14,5.40
2009,04,15,09,15,5.50
2009,04,15,09,16,5.50
2009,04,15,09,17,5.50
2009,04,15,09,18,5.60
2009,04,15,09,19,5.70
2009,04,15,09,20,5.70
2009,04,15,09,21,5.70
2009,04,15,09,22,5.70
2009,04,15,09,23,5.80
2009,04,15,09,24,5.80
2009,04,15,09,25,5.80
2009,04,15,09,26,5.90
2009,04,15,09,27,5.90
2009,04,15,09,28,5.90
2009,04,15,09,29,5.90
2009,04,15,09,30,5.90
2009,04,15,09,31,5.90
2009,04,15,09,32,6.00
2009,04,15,09,33,6.00
2009,04,15,09,34,6.10
2009,04,15,09,35,6.10
2009,04,15,09,36,6.20
2009,04,15,09,37,6.20
2009,04,15,09,38,6.20
2009,04,15,09,39,6.20
2009,04,15,09,40,6.20
2009,04,15,09,41,6.30
2009,04,15,09,42,6.30
2009,04,15,09,43,6.40
2009,04,15,09,44,6.40
2009,04,15,09,45,6.50
2009,04,15,09,46,6.60
2009,04,15,09,47,6.60
2009,04,15,09,48,6.70
2009,04,15,09,49,6.70
2009,04,15,09,50,6.80
2009,04,15,09,51,6.90
2009,04,15,09,52,7.00
2009,04,15,09,53,7.10
2009,04,15,09,54,7.20
2009,04,15,09,55,7.20
2009,04,15,09,56,7.30
2009,04,15,09,57,7.40
2009,04,15,09,58,7.40
2009,04,15,09,59,7.50
2009,04,15,10,00,7.60
2009,04,15,10,01,7.60
2009,04,15,10,02,7.70
2009,04,15,10,03,7.80
2009,04,15,10,04,7.80
2009,04,15,10,05,7.70
2009,04,15,10,06,7.60
2009,04,15,10,07,7.50
2009,04,15,10,08,7.40
2009,04,15,10,09,7.40
2009,04,15,10,10,7.30
2009,04,15,10,11,7.20
2009,04,15,10,12,7.20
2009,04,15,10,13,7.10
2009,04,15,10,14,7.10
2009,04,15,10,15,7.10
2009,04,15,10,16,7.10
2009,04,15,10,17,7.10
2009,04,15,10,18,7.10
2009,04,15,10,19,7.20
2009,04,15,10,20,7.20
2009,04,15,10,21,7.20
2009,04,15,10,22,7.20
2009,04,15,10,23,7.30
2009,04,15,10,24,7.40
2009,04,15,10,25,7.60
2009,04,15,10,26,7.70
2009,04,15,10,27,7.80
2009,04,15,10,28,7.90
2009,04,15,10,29,7.90
2009,04,15,10,30,8.00
2009,04,15,10,31,8.00
2009,04,15,10,32,7.90
2009,04,15,10,33,7.90
2009,04,15,10,34,7.80
2009,04,15,10,35,7.80
2009,04,15,10,36,7.80
2009,04,15,10,37,7.70
2009,04,15,10,38,7.80
2009,04,15,10,39,7.80
2009,04,15,10,40,7.80
2009,04,15,10,41,7.90
2009,04,15,10,42,8.00
2009,04,15,10,43,8.10
2009,04,15,10,44,8.10
2009,04,15,10,45,8.20
2009,04,15,10,46,8.20
2009,04,15,10,47,8.20
2009,04,15,10,48,8.20
2009,04,15,10,49,8.20
2009,04,15,10,50,8.20
2009,04,15,10,51,8.30
2009,04,15,10,52,8.30
2009,04,15,10,53,8.30
2009,04,15,10,54,8.20
2009,04,15,10,55,8.20
2009,04,15,10,56,8.20
2009,04,15,10,57,8.20
2009,04,15,10,58,8.30
2009,04,15,10,59,8.40
2009,04,15,11,00,8.50
2009,04,15,11,01,8.70
2009,04,15,11,02,8.80
2009,04,15,11,03,9.00
2009,04,15,11,04,9.10
2009,04,15,11,05,9.20
2009,04,15,11,06,9.20
2009,04,15,11,07,9.30
2009,04,15,11,08,9.30
2009,04,15,11,09,9.40
2009,04,15,11,10,9.50
2009,04,15,11,11,9.50
2009,04,15,11,12,9.60
2009,04,15,11,13,9.60
2009,04,15,11,14,9.60
2009,04,15,11,15,9.60
2009,04,15,11,16,9.70
2009,04,15,11,17,9.70
2009,04,15,11,18,9.80
2009,04,15,11,19,9.80
2009,04,15,11,20,9.90
2009,04,15,11,21,9.90
2009,04,15,11,22,9.90
2009,04,15,11,23,10.00
2009,04,15,11,24,10.00
2009,04,15,11,25,10.00
2009,04,15,11,26,10.00
2009,04,15,11,27,10.00
2009,04,15,11,28,10.00
2009,04,15,11,29,10.00
2009,04,15,11,30,10.10
2009,04,15,11,31,10.20
2009,04,15,11,32,10.30
2009,04,15,11,33,10.40
2009,04,15,11,34,10.50
2009,04,15,11,35,10.60
2009,04,15,11,36,10.60
2009,04,15,11,37,10.50
2009,04,15,11,38,10.40
2009,04,15,11,39,10.40
2009,04,15,11,40,10.30
2009,04,15,11,41,10.40
2009,04,15,11,42,10.40
2009,04,15,11,43,10.50
2009,04,15,11,44,10.50
2009,04,15,11,45,10.60
2009,04,15,11,46,10.60
2009,04,15,11,47,10.50
2009,04,15,11,48,10.50
2009,04,15,11,49,10.50
2009,04,15,11,50,10.40
2009,04,15,11,51,10.40
2009,04,15,11,52,10.40
2009,04,15,11,53,10.40
2009,04,15,11,54,10.40
2009,04,15,11,55,10.40
2009,04,15,11,56,10.50
2009,04,15,11,57,10.60
2009,04,15,11,58,10.80
2009,04,15,11,59,10.90
2009,04,15,12,00,10.90
2009,04,15,12,01,11.00
2009,04,15,12,02,10.90
2009,04,15,12,03,10.90
2009,04,15,12,04,11.00
2009,04,15,12,05,11.10
2009,04,15,12,06,11.20
2009,04,15,12,07,11.30
2009,04,15,12,08,11.20
2009,04,15,12,09,11.20
2009,04,15,12,10,11.10
2009,04,15,12,11,11.10
2009,04,15,12,12,11.00
2009,04,15,12,13,10.90
2009,04,15,12,14,10.90
2009,04,15,12,15,10.90
2009,04,15,12,16,10.90
2009,04,15,12,17,10.80
2009,04,15,12,18,10.80
2009,04,15,12,19,10.80
2009,04,15,12,20,10.80
2009,04,15,12,21,10.90
2009,04,15,12,22,11.10
2009,04,15,12,23,11.30
2009,04,15,12,24,11.50
2009,04,15,12,25,11.70
2009,04,15,12,26,11.80
2009,04,15,12,27,12.00
2009,04,15,12,28,12.10
2009,04,15,12,29,12.10
2009,04,15,12,30,12.10
2009,04,15,12,31,12.20
2009,04,15,12,32,12.30
2009,04,15,12,33,12.30
2009,04,15,12,34,12.30
2009,04,15,12,35,12.20
2009,04,15,12,36,12.10
2009,04,15,12,37,12.00
2009,04,15,12,38,11.90
2009,04,15,12,39,11.80
2009,04,15,12,40,11.80
2009,04,15,12,41,11.90
2009,04,15,12,42,12.00
2009,04,15,12,43,12.00
2009,04,15,12,44,12.00
2009,04,15,12,45,11.90
2009,04,15,12,46,11.90
2009,04,15,12,47,11.90
2009,04,15,12,48,11.80
2009,04,15,12,49,11.90
2009,04,15,12,50,11.90
2009,04,15,12,51,12.00
2009,04,15,12,52,12.00
2009,04,15,12,53,12.10
2009,04,15,12,54,12.10
2009,04,15,12,55,12.20
2009,04,15,12,56,12.30
2009,04,15,12,57,12.40
2009,04,15,12,58,12.40
2009,04,15,12,59,12.40
2009,04,15,13,00,12.40
2009,04,15,13,01,12.50
2009,04,15,13,02,12.60
2009,04,15,13,03,12.70
2009,04,15,13,04,12.80
2009,04,15,13,05,12.80
2009,04,15,13,06,12.70
2009,04,15,13,07,12.70
2009,04,15,13,08,12.70
2009,04,15,13,09,12.70
2009,04,15,13,10,12.70
2009,04,15,13,11,12.80
2009,04,15,13,12,12.90
2009,04,15,13,13,12.90
2009,04,15,13,14,12.90
2009,04,15,13,15,12.90
2009,04,15,13,16,12.90
2009,04,15,13,17,12.80
2009,04,15,13,18,12.70
2009,04,15,13,19,12.60
2009,04,15,13,20,12.60
2009,04,15,13,21,12.60
2009,04,15,13,22,12.60
2009,04,15,13,23,12.60
2009,04,15,13,24,12.70
2009,04,15,13,25,12.70
2009,04,15,13,26,12.80
2009,04,15,13,27,12.90
2009,04,15,13,28,12.90
2009,04,15,13,29,12.90
2009,04,15,13,30,12.90
2009,04,15,13,31,12.90
2009,04,15,13,32,12.90
2009,04,15,13,33,12.90
2009,04,15,13,34,12.90
2009,04,15,13,35,13.00
2009,04,15,13,36,13.10
2009,04,15,13,37,13.20
2009,04,15,13,38,13.30
2009,04,15,13,39,13.30
2009,04,15,13,40,13.30
2009,04,15,13,41,13.40
2009,04,15,13,42,13.40
2009,04,15,13,43,13.40
2009,04,15,13,44,13.50
2009,04,15,13,45,13.50
2009,04,15,13,46,13.50
2009,04,15,13,47,13.50
2009,04,15,13,48,13.40
2009,04,15,13,49,13.40
2009,04,15,13,50,13.40
2009,04,15,13,51,13.40
2009,04,15,13,52,13.60
2009,04,15,13,53,13.70
2009,04,15,13,54,13.90
2009,04,15,13,55,14.10
2009,04,15,13,56,14.20
2009,04,15,13,57,14.30
2009,04,15,13,58,14.40
2009,04,15,13,59,14.40
2009,04,15,14,00,14.40
2009,04,15,14,01,14.50
2009,04,15,14,02,14.60
2009,04,15,14,03,14.60
2009,04,15,14,04,14.70
2009,04,15,14,05,14.70
2009,04,15,14,06,14.80
2009,04,15,14,07,15.00
2009,04,15,14,08,15.00
2009,04,15,14,09,15.00
2009,04,15,14,10,15.00
2009,04,15,14,11,15.00
2009,04,15,14,12,15.00
2009,04,15,14,13,15.00
2009,04,15,14,14,15.10
2009,04,15,14,15,15.20
2009,04,15,14,16,15.20
2009,04,15,14,17,15.20
2009,04,15,14,18,15.30
2009,04,15,14,19,15.30
2009,04,15,14,20,15.10
2009,04,15,14,21,15.00
2009,04,15,14,22,15.00
2009,04,15,14,23,15.00
2009,04,15,14,24,15.00
2009,04,15,14,25,15.00
2009,04,15,14,26,15.00
2009,04,15,14,27,15.00
2009,04,15,14,28,15.00
2009,04,15,14,29,15.00
2009,04,15,14,30,15.00
2009,04,15,14,31,15.00
2009,04,15,14,32,15.00
2009,04,15,14,33,15.10
2009,04,15,14,34,15.30
2009,04,15,14,35,15.40
2009,04,15,14,36,15.50
2009,04,15,14,37,15.60
2009,04,15,14,38,15.60
2009,04,15,14,39,15.70
2009,04,15,14,40,15.70
2009,04,15,14,41,15.80
2009,04,15,14,42,15.80
2009,04,15,14,43,15.70
2009,04,15,14,44,15.60
2009,04,15,14,45,15.60
2009,04,15,14,46,15.40
2009,04,15,14,47,15.30
2009,04,15,14,48,15.20
2009,04,15,14,49,15.20
2009,04,15,14,50,15.30
2009,04,15,14,51,15.20
2009,04,15,14,52,15.30
2009,04,15,14,53,15.30
2009,04,15,14,54,15.40
2009,04,15,14,55,15.50
2009,04,15,14,56,15.50
2009,04,15,14,57,15.40
2009,04,15,14,58,15.40
2009,04,15,14,59,15.30
2009,04,15,15,00,15.30
2009,04,15,15,01,15.30
2009,04,15,15,02,15.30
2009,04,15,15,03,15.40
2009,04,15,15,04,15.20
2009,04,15,15,05,15.00
2009,04,15,15,06,15.00
2009,04,15,15,07,15.00
2009,04,15,15,08,15.00
2009,04,15,15,09,15.00
2009,04,15,15,10,15.00
2009,04,15,15,11,15.00
2009,04,15,15,12,15.00
2009,04,15,15,13,15.00
2009,04,15,15,14,15.00
2009,04,15,15,15,15.00
2009,04,15,15,16,15.00
2009,04,15,15,17,15.00
2009,04,15,15,18,15.00
2009,04,15,15,19,15.00
2009,04,15,15,20,15.00
2009,04,15,15,21,15.10
2009,04,15,15,22,15.20
2009,04,15,15,23,15.20
2009,04,15,15,24,15.10
2009,04,15,15,25,15.00
2009,04,15,15,26,15.00
2009,04,15,15,27,15.00
2009,04,15,15,28,15.00
2009,04,15,15,29,15.00
2009,04,15,15,30,15.00
2009,04,15,15,31,15.00
2009,04,15,15,32,15.00
2009,04,15,15,33,15.00
2009,04,15,15,34,15.00
2009,04,15,15,35,15.00
2009,04,15,15,36,15.00
2009,04,15,15,37,15.10
2009,04,15,15,38,15.10
2009,04,15,15,39,15.20
2009,04,15,15,40,15.20
2009,04,15,15,41,15.10
2009,04,15,15,42,15.00
2009,04,15,15,43,15.00
2009,04,15,15,44,14.90
2009,04,15,15,45,14.70
2009,04,15,15,46,14.50
2009,04,15,15,47,14.30
2009,04,15,15,48,14.20
2009,04,15,15,49,14.10
2009,04,15,15,50,14.00
2009,04,15,15,51,14.00
2009,04,15,15,52,13.90
2009,04,15,15,53,13.80
2009,04,15,15,54,13.80
2009,04,15,15,55,13.80
2009,04,15,15,56,13.70
2009,04,15,15,57,13.60
2009,04,15,15,58,13.60
2009,04,15,15,59,13.60
2009,04,15,16,00,13.50
2009,04,15,16,01,13.40
2009,04,15,16,02,13.40
2009,04,15,16,03,13.40
2009,04,15,16,04,13.40
2009,04,15,16,05,13.40
2009,04,15,16,06,13.40
2009,04,15,16,07,13.40
2009,04,15,16,08,13.40
2009,04,15,16,09,13.40
2009,04,15,16,10,13.30
2009,04,15,16,11,13.40
2009,04,15,16,12,13.40
2009,04,15,16,13,13.40
2009,04,15,16,14,13.40
2009,04,15,16,15,13.40
2009,04,15,16,16,13.50
2009,04,15,16,17,13.50
2009,04,15,16,18,13.50
2009,04,15,16,19,13.60
2009,04,15,16,20,13.60
2009,04,15,16,21,13.70
2009,04,15,16,22,13.80
2009,04,15,16,23,13.80
2009,04,15,16,24,13.80
2009,04,15,16,25,13.80
2009,04,15,16,26,13.80
2009,04,15,16,27,13.80
2009,04,15,16,28,13.80
2009,04,15,16,29,13.80
2009,04,15,16,30,13.80
2009,04,15,16,31,13.80
2009,04,15,16,32,13.80
2009,04,15,16,33,13.70
2009,04,15,16,34,13.70
2009,04,15,16,35,13.60
2009,04,15,16,36,13.60
2009,04,15,16,37,13.60
2009,04,15,16,38,13.60
2009,04,15,16,39,13.50
2009,04,15,16,40,13.40
2009,04,15,16,41,13.30
2009,04,15,16,42,13.30
2009,04,15,16,43,13.30
2009,04,15,16,44,13.30
2009,04,15,16,45,13.20
2009,04,15,16,46,13.20
2009,04,15,16,47,13.20
2009,04,15,16,48,13.20
2009,04,15,16,49,13.20
2009,04,15,16,50,13.20
2009,04,15,16,51,13.20
2009,04,15,16,52,13.10
2009,04,15,16,53,13.00
2009,04,15,16,54,13.00
2009,04,15,16,55,13.00
2009,04,15,16,56,13.00
2009,04,15,16,57,13.00
2009,04,15,16,58,13.00
2009,04,15,16,59,13.00
2009,04,15,17,00,12.90
2009,04,15,17,01,12.80
2009,04,15,17,02,12.60
2009,04,15,17,03,12.60
2009,04,15,17,04,12.60
2009,04,15,17,05,12.50
2009,04,15,17,06,12.40
2009,04,15,17,07,12.40
2009,04,15,17,08,12.30
2009,04,15,17,09,12.20
2009,04,15,17,10,12.00
2009,04,15,17,11,11.90
2009,04,15,17,12,11.80
2009,04,15,17,13,11.80
2009,04,15,17,14,11.70
2009,04,15,17,15,11.60
2009,04,15,17,16,11.60
2009,04,15,17,17,11.70
2009,04,15,17,18,11.60
2009,04,15,17,19,11.60
2009,04,15,17,20,11.70
2009,04,15,17,21,11.70
2009,04,15,17,22,11.70
2009,04,15,17,23,11.70
2009,04,15,17,24,11.80
2009,04,15,17,25,11.80
2009,04,15,17,26,11.90
2009,04,15,17,27,12.00
2009,04,15,17,28,12.10
2009,04,15,17,29,12.10
2009,04,15,17,30,12.10
2009,04,15,17,31,12.20
2009,04,15,17,32,12.20
2009,04,15,17,33,12.30
2009,04,15,17,34,12.30
2009,04,15,17,35,12.40
2009,04,15,17,36,12.50
2009,04,15,17,37,12.60
2009,04,15,17,38,12.70
2009,04,15,17,39,12.80
2009,04,15,17,40,12.90
2009,04,15,17,41,13.00
2009,04,15,17,42,13.10
2009,04,15,17,43,13.10
2009,04,15,17,44,13.10
2009,04,15,17,45,13.10
2009,04,15,17,46,13.10
2009,04,15,17,47,13.10
2009,04,15,17,48,13.10
2009,04,15,17,49,13.10
2009,04,15,17,50,13.10
2009,04,15,17,51,13.00
2009,04,15,17,52,12.90
2009,04,15,17,53,12.90
2009,04,15,17,54,12.80
2009,04,15,17,55,12.70
2009,04,15,17,56,12.70
2009,04,15,17,57,12.60
2009,04,15,17,58,12.60
2009,04,15,17,59,12.50
2009,04,15,18,00,12.50
2009,04,15,18,01,12.60
2009,04,15,18,02,12.60
2009,04,15,18,03,12.60
2009,04,15,18,04,12.60
2009,04,15,18,05,12.60
2009,04,15,18,06,12.50
2009,04,15,18,07,12.50
2009,04,15,18,08,12.40
2009,04,15,18,09,12.40
2009,04,15,18,10,12.30
2009,04,15,18,11,12.20
2009,04,15,18,12,12.20
2009,04,15,18,13,12.30
2009,04,15,18,14,12.30
2009,04,15,18,15,12.30
2009,04,15,18,16,12.30
2009,04,15,18,17,12.30
2009,04,15,18,18,12.30
2009,04,15,18,19,12.30
2009,04,15,18,20,12.30
2009,04,15,18,21,12.30
2009,04,15,18,22,12.30
2009,04,15,18,23,12.30
2009,04,15,18,24,12.30
2009,04,15,18,25,12.30
